Location: Radomski Observatory
(40.2854°N, 79.5145°W)
Time: 08:18:27
(UTC-05:00)

Daily predictions for brighter satellites

Satellite Brightness Start Highest point End
(mag) Time Altitude Azimuth Time Altitude Azimuth Time Altitude Azimuth
Cosmos 405 3.3 18:24:16 10° SSE 18:27:35 44° E 18:30:58 10° NNE
Cosmos 1624 Rocket 4.2 18:23:48 10° NNW 18:29:02 79° WSW 18:34:13 10° SSE
Landsat 4 3.8 18:27:53 10° NNE 18:31:33 51° E 18:35:13 10° S
NOAA 12 4.1 18:29:45 10° SSE 18:35:01 72° ENE 18:40:20 10° N
Cosmos 1464 Rocket 4.4 18:30:13 10° N 18:35:52 37° ENE 18:41:28 10° SE
OAO 2 Rocket 4.4 18:36:54 10° SW 18:41:15 31° SSE 18:45:28 10° ESE
Cosmos 2219 Rocket 4.0 18:37:35 10° NW 18:42:46 37° WSW 18:47:52 10° S
COSMO-SKYMED 1 3.1 18:39:18 10° N 18:43:36 63° WNW 18:47:53 10° SSW
DMSP B5D1-3 4.5 18:39:17 10° NNE 18:44:25 70° ESE 18:49:32 10° S
Cosmos 2227 Rocket 2.9 18:51:20 10° SW 18:56:52 56° WNW 19:02:27 10° NNE
USA 215 3.5 18:50:42 10° ENE 18:57:01 49° SE 19:03:16 10° SSW
SeaSat 1 3.3 18:53:04 11° ESE 18:57:11 29° NE 19:01:26 10° N
FENGYUN 3A 4.3 18:51:58 10° S 18:57:17 60° W 19:02:40 10° NNW
Cosmos 2237 Rocket 3.0 18:53:02 10° NNW 18:58:33 56° WSW 19:04:00 10° S
SJ-6B 3.5 18:55:57 10° SE 18:59:15 30° ENE 19:02:37 10° N
Envisat 3.8 18:55:15 10° SE 18:59:34 29° ENE 19:03:55 10° N
Thor Agena Rocket 4.1 18:56:43 10° NNE 19:01:18 33° E 19:05:48 10° SSE
SL-16 R/B 2.2 18:56:55 10° NNW 19:02:34 64° ENE 19:08:10 10° SSE
Tiangong 2 1.6 19:00:29 10° WNW 19:03:36 54° SSW 19:05:47 17° SE
FREGAT/IRIS 2.5 19:03:11 10° SSE 19:06:05 58° ENE 19:09:01 10° N
Cosmos 44 Rocket 3.4 19:01:07 10° NNW 19:06:07 59° NE 19:11:10 10° SE
USA 32 4.2 19:01:46 10° SSE 19:06:46 48° E 19:11:46 10° NNE
NOSS 3-2 (C) 4.3 19:01:24 10° SW 19:07:11 51° NW 19:13:36 10° NNE
Cosmos 1269 Rocket 4.4 19:02:59 10° S 19:07:53 40° ESE 19:12:48 10° NE
Cosmos 1674 Rocket 3.7 19:03:37 10° N 19:07:58 76° W 19:12:16 10° S
H-2A R/B 2.8 19:04:56 10° S 19:08:51 83° WSW 19:12:46 10° NNW
Cosmos 2297 Rocket 3.1 19:05:22 10° SW 19:10:50 50° WNW 19:16:21 10° NNE
HJ-1C 3.6 19:07:52 10° SSE 19:11:10 46° ENE 19:14:28 10° N
Cosmos 2034 Rocket 4.1 19:05:08 10° N 19:11:23 53° E 19:17:33 10° SSE
Meteor 1-14 Rocket 4.3 19:05:53 10° S 19:11:39 89° W 19:17:36 10° N
Cosmos 1891 Rocket 4.4 19:07:09 10° N 19:13:21 65° E 19:19:23 10° SSE
Okean 1 3.5 19:09:50 10° N 19:13:42 46° E 19:17:31 10° SSE
Cosmos 1908 Rocket 3.5 19:10:52 10° S 19:15:21 82° E 19:19:50 10° N
Okean 3 3.6 19:11:34 10° N 19:15:45 76° W 19:19:54 10° S
Meteor 1-20 Rocket 4.2 19:12:49 10° S 19:18:30 87° ESE 19:24:20 10° N
Cosmos 1633 2.8 19:15:28 10° SSW 19:19:00 70° W 19:22:35 10° N
Cosmos 921 Rocket 3.3 19:16:00 10° N 19:20:24 49° ENE 19:23:42 16° SE
Cosmos 1603 4.5 19:15:52 10° N 19:20:52 31° ENE 19:22:38 26° E
ERS-2 2.2 19:18:10 10° S 19:21:50 80° WSW 19:25:33 10° NNW
CZ-2D R/B 3.3 19:22:36 11° SSE 19:26:11 54° ENE 19:30:00 10° N
Cosmos 1812 4.1 19:23:45 10° NNW 19:27:24 41° W 19:31:03 10° SSW
USA 267 4.2 19:27:11 22° ENE 19:30:12 31° NNE 19:35:47 10° NW
Resurs 1-3 4.3 19:30:55 32° ENE 19:30:55 32° ENE 19:34:30 10° N
CENTAUR R/B 2.6 19:26:14 10° SW 19:32:11 78° NW 19:39:04 10° NNE
Meteor 1-18 Rocket 4.4 19:29:46 10° NNW 19:35:21 73° W 19:40:52 10° S
CZ-4C R/B 3.9 19:30:05 10° NNW 19:35:47 25° NE 19:37:37 23° ENE
Cosmos 44 4.0 19:32:07 10° NW 19:37:05 58° WSW 19:42:16 10° SSE
SL-8 R/B 4.2 19:33:37 10° W 19:38:18 53° NNW 19:40:30 29° NE
Cosmos 1602 3.6 19:34:52 10° S 19:38:45 66° E 19:42:37 10° NNE
Resurs 01 Rocket 2.1 19:42:38 41° NE 19:42:38 41° NE 19:46:21 10° N
Cosmos 1975 Rocket 2.9 19:38:29 10° N 19:42:56 74° E 19:46:31 16° SSE
Cosmos 1331 Rocket 4.5 19:41:34 10° N 19:46:26 39° ENE 19:46:26 39° ENE
Spot 2 Rocket 3.8 19:49:48 43° ENE 19:49:48 43° ENE 19:54:16 10° N
Meteor 1-19 Rocket 4.0 19:45:10 10° N 19:50:42 70° E 19:54:50 18° SSE
Iridium 4 Rocket 4.2 19:47:54 10° NNW 19:52:35 48° W 19:56:52 10° SSW
Geosat 3.9 19:51:11 38° NE 19:52:59 63° ESE 19:57:56 10° SSW
Meteor 1-11 Rocket 3.7 19:47:57 10° S 19:53:21 56° E 19:58:54 10° NNE
Cosmos 1437 Rocket 3.2 19:49:36 10° SSW 19:53:36 63° W 19:57:41 10° N
Meteor 2-4 Rocket 3.8 19:48:27 10° N 19:54:08 52° ENE 19:54:53 49° ESE
Cosmos 2227 4.1 19:53:18 10° SSW 19:59:02 81° ESE 20:03:12 19° NNE
Gbstr 26 Del rocket 3.6 19:56:19 10° SW 19:58:46 38° SSW 19:58:46 38° SSW
USA 186 4.3 20:03:05 15° NNW 20:03:05 15° NNW 20:03:46 10° NNW
COSMOS 2455 3.2 19:54:51 10° S 19:59:33 42° SE 19:59:33 42° SE
Cosmos 1939 Rocket 4.2 20:05:46 31° N 20:05:46 31° N 20:08:00 10° N
Tsikada Rocket 4.1 19:58:24 10° S 20:04:48 78° W 20:11:15 10° N
ATLAS CENTAUR R/B 3.9 20:21:25 10° N 20:21:59 13° N 20:21:59 13° N
OAO 2 Rocket 4.2 20:20:51 10° WSW 20:24:26 39° SW 20:24:26 39° SW
Cosmos 1943 3.9 20:23:11 10° NNW 20:27:09 43° N 20:27:09 43° N
Okean 2 Rocket 4.2 20:26:31 10° SSW 20:30:40 42° WNW 20:34:52 10° N
SeaSat 1 3.7 20:32:53 29° SSW 20:34:34 37° WSW 20:39:09 10° NW
USA 215 3.9 20:37:21 33° NNE 20:40:00 51° NW 20:46:16 10° WSW
USA 267 3.9 21:14:32 51° NW 21:14:32 51° NW 21:19:12 10° NW
Resurs 01 Rocket 4.5 21:20:12 15° WNW 21:20:12 15° WNW 21:21:41 10° NW
CZ-4C R/B 3.5 21:17:55 10° NW 21:22:51 49° NNW 21:22:51 49° NNW
CZ-3C R/B 4.4 21:22:56 10° SW 22:12:39 - ESE 21:25:19 22° SSW
